Date String (YYYY-MM-DD hh:mm:ss) UTC,Instrument flags,Ambient pressure (hPa),Sample flow (lpm),Bypass flow (lpm),Sample temperature (°C),Ambient temperature (°C),ASC tube jacket temperature (°C),LED temperature (°C),Box temperature (°C),Sample RH (%),Span deviation,Mass concentration (μg/m³),Mass concentration (μg/m³),Mass concentration (μg/m³)
DateTimeUTC,F1_M11,P_M11,Q1_M11,Q2_M11,T1_M11,T2_M11,T3_M11,T4_M11,T5_M11,U1_M11,ZSPAN_M11,X0_M11,X2_M11,X1_M11
2022-12-14 17:00:00,,0816.2,5.01,0.00,22.6,22.0,00.0,31.3,24.4,09.3,0000.0,0011.23,0005.35,0004.65
2022-12-14 17:01:00,,0816.3,4.97,0.00,22.6,21.7,00.0,31.3,24.4,09.3,0000.0,0011.41,0005.36,0004.66
2022-12-14 17:02:00,,0816.3,5.01,0.00,22.6,21.4,00.0,31.3,24.3,09.1,0000.0,0011.77,0005.38,0004.66
2022-12-14 17:03:00,,0816.3,5.01,0.00,22.5,21.3,00.0,31.3,24.3,09.0,0000.0,0011.99,0005.44,0004.68
2022-12-14 17:04:00,,0816.3,5.00,0.00,22.5,21.1,00.0,31.3,24.2,09.1,0000.0,0012.13,0005.53,0004.74
2022-12-14 17:05:00,,0816.3,5.00,0.00,22.5,21.0,00.0,31.3,24.2,09.2,0000.0,0012.18,0005.57,0004.77
2022-12-14 17:06:00,,0816.3,5.00,0.00,22.4,20.8,00.0,31.3,24.2,09.3,0000.0,0011.71,0005.59,0004.81
2022-12-14 17:07:00,,0816.3,5.00,0.00,22.4,20.8,00.0,31.3,24.1,09.3,0000.0,0012.08,0005.62,0004.84
2022-12-14 17:08:00,,0816.3,5.00,0.00,22.4,20.7,00.0,31.3,24.1,09.5,0000.0,0011.99,0005.63,0004.88
2022-12-14 17:09:00,,0816.3,5.05,0.00,22.4,20.7,00.0,31.3,24.1,09.4,0000.0,0011.71,0005.67,0004.91
2022-12-14 17:10:00,,0816.3,4.95,0.00,22.4,20.6,00.0,31.3,24.1,09.7,0000.0,0012.04,0005.70,0004.95
2022-12-14 17:11:00,,0816.2,5.04,0.00,22.3,20.6,00.0,31.2,24.1,09.7,0000.0,0012.04,0005.68,0004.98
2022-12-14 17:12:00,,0816.2,4.95,0.00,22.3,20.6,00.0,31.2,24.0,09.9,0000.0,0012.05,0005.69,0004.99
2022-12-14 17:13:00,,0816.2,5.00,0.00,22.3,20.6,00.0,31.2,24.0,10.1,0000.0,0011.86,0005.70,0005.00
2022-12-14 17:14:00,,0816.2,5.01,0.00,22.3,20.6,00.0,31.2,24.0,10.1,0000.0,0011.70,0005.68,0005.01
2022-12-14 17:15:00,,0816.2,4.99,0.00,22.3,20.6,00.0,31.2,24.0,09.9,0000.0,0011.69,0005.65,0005.00
2022-12-14 17:16:00,,0816.2,5.05,0.00,22.3,20.7,00.0,31.2,24.0,09.6,0000.0,0012.30,0005.65,0004.98
2022-12-14 17:17:00,,0816.3,4.97,0.00,22.3,21.8,00.0,31.2,24.2,09.3,0000.0,0012.60,0005.64,0004.98
2022-12-14 17:18:00,,0816.2,5.02,0.00,22.4,22.6,00.0,31.2,24.4,09.4,0000.0,0012.63,0005.61,0004.98
2022-12-14 17:19:00,,0816.3,4.99,0.00,22.5,22.4,00.0,31.2,24.4,09.2,0000.0,0012.60,0005.60,0004.97
2022-12-14 17:20:00,,0816.3,5.01,0.00,22.5,22.0,00.0,31.2,24.3,09.4,0000.0,0012.78,0005.57,0004.94
2022-12-14 17:21:00,,0816.3,4.97,0.00,22.5,21.6,00.0,31.2,24.3,09.4,0000.0,0012.20,0005.57,0004.92
2022-12-14 17:22:00,,0816.3,5.01,0.00,22.5,21.4,00.0,31.3,24.2,09.4,0000.0,0011.80,0005.58,0004.89
2022-12-14 17:23:00,,0816.2,5.01,0.00,22.4,21.2,00.0,31.2,24.2,09.7,0000.0,0011.89,0005.60,0004.88
2022-12-14 17:24:00,,0816.3,5.01,0.00,22.4,21.0,00.0,31.2,24.2,09.8,0000.0,0011.84,0005.59,0004.87
2022-12-14 17:25:00,,0816.3,5.00,0.00,22.4,20.9,00.0,31.2,24.1,10.0,0000.0,0011.91,0005.53,0004.84
2022-12-14 17:26:00,,0816.3,5.00,0.00,22.4,20.8,00.0,31.2,24.1,10.1,0000.0,0013.41,0005.52,0004.83
2022-12-14 17:27:00,,0816.3,5.00,0.00,22.4,20.7,00.0,31.2,24.1,09.9,0000.0,0014.46,0005.51,0004.82
2022-12-14 17:28:00,,0816.3,5.00,0.00,22.3,20.7,00.0,31.2,24.0,09.8,0000.0,0013.88,0005.46,0004.81
2022-12-14 17:29:00,,0816.3,5.00,0.00,22.3,20.7,00.0,31.2,24.1,09.9,0000.0,0012.94,0005.43,0004.79
2022-12-14 17:30:00,,0816.3,4.99,0.00,22.3,20.7,00.0,31.2,24.0,09.8,0000.0,0012.97,0005.42,0004.76
2022-12-14 17:31:00,,0816.3,5.00,0.00,22.3,20.6,00.0,31.2,24.0,10.0,0000.0,0013.00,0005.39,0004.73
2022-12-14 17:32:00,,0816.3,5.00,0.00,22.3,20.6,00.0,31.2,24.0,10.2,0000.1,0013.07,0005.35,0004.71
2022-12-14 17:33:00,,0816.3,5.03,0.00,22.3,20.6,00.0,31.2,24.0,10.1,0000.2,0013.68,0005.30,0004.70
2022-12-14 17:34:00,,0816.3,4.95,0.00,22.3,20.7,00.0,31.2,24.0,09.9,0000.0,0013.42,0005.24,0004.69
2022-12-14 17:35:00,,0816.2,5.05,0.00,22.2,20.7,00.0,31.1,24.0,09.7,0000.0,0014.02,0005.20,0004.66
2022-12-14 17:36:00,,0816.2,4.95,0.00,22.2,20.8,00.0,31.1,24.0,09.7,0000.0,0013.80,0005.16,0004.63
2022-12-14 17:37:00,,0816.1,5.01,0.00,22.3,21.6,00.0,31.1,24.2,09.5,0000.0,0012.26,0005.11,0004.58
2022-12-14 17:38:00,,0816.2,5.03,0.00,22.4,22.5,00.0,31.1,24.4,09.4,0000.0,0011.09,0005.06,0004.55
2022-12-14 17:39:00,,0816.1,4.96,0.00,22.5,22.4,00.0,31.2,24.4,09.3,0000.0,0011.22,0005.06,0004.52
2022-12-14 17:40:00,,0816.1,5.01,0.00,22.5,21.9,00.0,31.2,24.3,09.4,0000.0,0011.42,0005.06,0004.51
2022-12-14 17:41:00,,0816.1,5.00,0.00,22.4,21.5,00.0,31.2,24.2,09.5,0000.0,0011.21,0005.01,0004.50
2022-12-14 17:42:00,,0816.1,5.01,0.00,22.4,21.2,00.0,31.2,24.2,09.5,0000.0,0011.12,0005.01,0004.50
2022-12-14 17:43:00,,0816.1,5.00,0.00,22.4,21.1,00.0,31.2,24.2,09.2,0000.0,0010.76,0004.96,0004.46
2022-12-14 17:44:00,,0816.1,4.97,0.00,22.4,21.0,00.0,31.2,24.1,09.4,0000.0,0010.14,0004.96,0004.43
2022-12-14 17:45:00,,0816.1,5.05,0.00,22.4,20.9,00.0,31.2,24.1,09.1,0000.0,0010.10,0004.93,0004.40
2022-12-14 17:46:00,,0816.1,4.95,0.00,22.4,20.9,00.0,31.2,24.1,09.3,0000.0,0009.97,0004.92,0004.37
2022-12-14 17:47:00,,0816.1,5.05,0.00,22.3,20.8,00.0,31.2,24.1,09.5,0000.0,0010.66,0004.94,0004.37
2022-12-14 17:48:00,,0816.2,4.95,0.00,22.3,20.7,00.0,31.2,24.0,09.6,0000.0,0011.24,0004.99,0004.39
2022-12-14 17:49:00,,0816.2,5.01,0.00,22.3,20.6,00.0,31.2,24.0,09.8,0000.0,0011.03,0005.05,0004.40
2022-12-14 17:50:00,,0816.2,5.01,0.00,22.3,20.5,00.0,31.2,23.9,10.0,0000.0,0010.77,0005.03,0004.40
2022-12-14 17:51:00,,0816.1,4.97,0.00,22.2,20.5,00.0,31.1,23.9,09.9,0000.0,0011.07,0005.07,0004.41
2022-12-14 17:52:00,,0816.2,5.04,0.00,22.2,20.5,00.0,31.1,23.9,09.8,0000.0,0011.66,0005.14,0004.42
2022-12-14 17:53:00,,0816.3,4.95,0.00,22.2,20.5,00.0,31.1,23.9,10.0,0000.0,0011.64,0005.18,0004.45
2022-12-14 17:54:00,,0816.3,5.04,0.00,22.2,20.4,00.0,31.1,23.9,10.2,0000.0,0011.69,0005.22,0004.48
2022-12-14 17:55:00,,0816.2,4.95,0.00,22.2,20.4,00.0,31.1,23.9,10.2,0000.0,0011.96,0005.24,0004.49
2022-12-14 17:56:00,,0816.2,5.01,0.00,22.2,21.1,00.0,31.1,24.0,10.0,0000.0,0012.02,0005.27,0004.52
2022-12-14 17:57:00,,0816.3,5.02,0.00,22.3,22.2,00.0,31.1,24.2,09.8,0000.0,0011.78,0005.31,0004.55
2022-12-14 17:58:00,,0816.3,5.00,0.00,22.4,22.5,00.0,31.1,24.4,09.7,0000.0,0011.15,0005.32,0004.55
2022-12-14 17:59:00,,0816.3,4.98,0.00,22.4,22.1,00.0,31.1,24.3,09.8,0000.0,0010.63,0005.29,0004.55
